[[{"header":{"parameterUnit":"m.s-1","parameterCategory":1,"la1":30.2991,"la2":30.254,"lo1":-89.0895,"lo2":-89.0444,"dy":0.0017,"dx":0.0017,"nx":28,"ny":28,"refTime":"2025-06-05T09:00:00:Z","depth":0,"parameterNumber":2,"parameterNumberName":"U-component_of_WINDS"},"data":[0,0,0,0,0,0,0,0,0,0,0,0,0,0,0,0,0,0,0,0,0,0,0,0,0,0,0,0,0,0,0,0,0,0,0,0,0,0,0,0,0,0,0,0,0,0,0,0,0,0,0,0,0,0,0,0,0,0,-0.0437,-0.0435,0,-0.0277,-0.0275,-0.0273,-0.0195,-0.0195,-0.0195,-0.0195,-0.0031,-0.0026,-0.0022,0,0,0,0,0,0,0,0,0,0,0,0,0,-0.0676,-0.0672,-0.0437,-0.0435,-0.0433,-0.0277,-0.0275,-0.0273,-0.0195,-0.0195,-0.0195,-0.0195,-0.0032,-0.0027,-0.0021,0,0,0,0,0,0,0,0,0,0,0,0,0,-0.055,-0.0671,-0.0437,-0.0375,-0.0368,-0.0277,-0.0275,-0.0272,-0.0195,-0.0195,-0.0195,-0.0195,-0.0034,-0.0027,-0.0021,0.0021,0,0,-0.0001,0.0002,0,0,0,0,0,0,0,0,-0.0557,-0.0541,-0.0386,-0.0379,-0.0371,-0.0256,-0.0299,-0.0174,-0.0195,-0.0261,-0.0195,-0.0195,-0.0105,-0.0093,-0.0063,0.0028,0.0035,-0.0,0.0004,0.0007,0.0009,0,0,0,0,0,0,0,-0.0566,-0.0547,-0.0373,-0.0384,-0.0375,-0.0356,-0.0338,-0.0275,-0.0185,-0.0255,-0.0249,-0.0231,-0.0101,-0.0069,-0.0058,0.0038,-0.0,0.0006,0.001,0.0012,0.0169,0.0169,0,0,0,0,0,0,-0.0585,-0.0555,-0.0378,-0.0369,-0.0466,-0.0351,-0.0331,-0.0293,-0.0185,-0.0169,-0.0231,-0.0228,-0.0081,-0.0066,-0.0052,0.0003,0.0007,0.0013,0.0017,0.0169,0.0169,0.017,0,0,0,0,0,0,-0.059,-0.0569,-0.0385,-0.046,-0.0435,-0.0347,-0.0305,-0.029,-0.0257,-0.0167,-0.0151,-0.0215,-0.008,-0.0062,0.0002,0.0009,0.0016,0.0022,0.0169,0.0169,0.0169,0.0113,0,0,0,0,0,0,-0.0597,-0.0572,-0.0555,-0.046,-0.0432,-0.0334,-0.0304,-0.0286,-0.0246,-0.0241,-0.0148,-0.0132,-0.0079,-0.0009,0.0008,0.0019,0.0027,0.0168,0.0169,0.0169,0.0114,0.0111,0.0108,0,0,0,0,0,-0.0606,-0.0577,-0.0554,-0.0534,-0.0408,-0.0333,-0.0317,-0.0256,-0.0246,-0.0229,-0.0171,-0.0135,0.0005,-0.0003,0.0017,0.0029,0.0168,0.0169,0.0169,0.0116,0.0112,0.0108,0,0,0,0,0,0,-0.0672,-0.0563,-0.0537,-0.0476,-0.0415,-0.032,-0.0296,-0.0262,-0.0201,-0.0198,-0.0125,-0.0105,-0.0049,-0.0003,-0.0015,0.0074,0.009,0.0095,0.0043,0.004,0.0037,0.0025,0.0033,0,0,0,0,0,-0.068,-0.0628,-0.0535,-0.0491,-0.0461,-0.0385,-0.0349,-0.0308,-0.0241,-0.0214,-0.0152,-0.0088,-0.003,0.0007,0.0066,0.0121,0.0142,0.0139,0.0136,0.0133,0.0136,0.0167,0.0167,0.0171,0.0171,0.0171,0,0,-0.0695,-0.0629,-0.06,-0.0503,-0.045,-0.0398,-0.0363,-0.0309,-0.027,-0.0206,-0.0143,-0.0095,-0.0019,0.0039,0.0068,0.0079,0.0139,0.0134,0.0131,0.0136,0.0168,0.0167,0.0167,0.0171,0.0171,0.0171,0,0,-0.0695,-0.064,-0.0597,-0.0546,-0.0467,-0.0416,-0.0406,-0.0317,-0.0283,-0.0219,-0.017,-0.0123,-0.0023,0.0028,0.0068,0.0084,0.0118,0.0101,0.0085,0.0115,0.0114,0.0115,0.012,0.0121,0.0103,0.0103,0.0103,0,-0.0724,-0.0643,-0.058,-0.0529,-0.0488,-0.0429,-0.0385,-0.0338,-0.0244,-0.0218,-0.0207,-0.0082,-0.0027,0.0044,0.0047,0.0077,0.0091,0.0091,0.0109,0.011,0.0111,0.0117,0.0119,0.0101,0.0101,0.0101,0.0101,0,-0.0682,-0.0628,-0.0603,-0.0514,-0.047,-0.0424,-0.0354,-0.0317,-0.028,-0.0231,-0.0167,-0.0099,-0.0026,-0.0006,0.0031,0.0069,0.0073,0.0095,0.0113,0.0107,0.0114,0.0116,0.0097,0.0098,0.0099,0.0099,0,0,-0.0718,-0.0597,-0.0589,-0.0548,-0.0458,-0.0414,-0.0366,-0.0295,-0.0265,-0.0203,-0.0161,-0.0079,-0.0059,-0.0014,0.0029,0.0054,0.0062,0.0074,0.0076,0.0069,0.0108,0.0091,0.0093,0.0085,0.0086,0.0086,0.0101,0,-0.0706,-0.0616,-0.0558,-0.0491,-0.0441,-0.0385,-0.0343,-0.0283,-0.0237,-0.0187,-0.0135,-0.0079,-0.0056,-0.0029,-0.0001,0.0055,0.0071,0.0055,0.0125,0.0127,0.0105,0.0096,0.0079,0.009,0.0105,0.0105,0.0105,0,-0.0679,-0.0619,-0.0548,-0.0464,-0.0441,-0.0404,-0.0335,-0.0288,-0.022,-0.0188,-0.014,-0.0097,-0.0044,-0.0032,0.0041,0.0029,0.0061,0.0092,0.0094,0.0104,0.0116,0.0105,0.0096,0.0097,0.011,0.011,0.011,0,-0.0713,-0.0614,-0.0559,-0.0526,-0.0428,-0.0403,-0.0361,-0.0293,-0.0255,-0.0195,-0.0169,-0.0104,-0.0068,-0.0019,0.004,0.0044,0.0107,0.0125,0.0135,0.0134,0.0147,0.0146,0.0142,0.0167,0.0167,0.0167,0.0167,0,-0.0705,-0.0663,-0.0573,-0.0539,-0.0491,-0.0426,-0.038,-0.0334,-0.0274,-0.023,-0.0179,-0.0139,-0.0063,-0.0014,0.0032,0.0086,0.0102,0.0129,0.0141,0.0124,0.0121,0.0147,0.0148,0.0167,0.0167,0.0167,0.0167,0,-0.0734,-0.0671,-0.0607,-0.052,-0.0497,-0.0466,-0.0391,-0.0357,-0.0308,-0.0254,-0.0237,-0.0161,-0.0101,-0.0037,0.0045,0.0076,0.0127,0.0144,0.0104,0.0111,0.0118,0.0116,0.0131,0.0136,0.0156,0.0156,0.0156,0,-0.0732,-0.0699,-0.0609,-0.0576,-0.0536,-0.0483,-0.0444,-0.038,-0.0341,-0.0263,-0.0238,-0.0174,-0.0119,-0.0026,0.0036,0.0099,0.0117,0.0118,0.0127,0.0109,0.0117,0.0115,0.0118,0.0116,0.0115,0.0115,0.0114,0,-0.0737,-0.0708,-0.0654,-0.059,-0.0545,-0.0491,-0.0435,-0.0411,-0.0336,-0.0296,-0.0234,-0.0192,-0.0109,-0.0047,0.0022,0.0066,0.0102,0.011,0.0116,0.01,0.0076,0.0089,0.0096,0.011,0.0111,0.0111,0.0111,0.0111,-0.075,-0.0718,-0.065,-0.0592,-0.0544,-0.0493,-0.0457,-0.0405,-0.0352,-0.028,-0.0246,-0.0185,-0.0119,-0.0022,0.002,0.0069,0.008,0.0088,0.009,0.0091,0.0087,0.0067,0.0082,0.0082,0.0082,0.0082,0.0082,0,-0.0752,-0.0706,-0.0653,-0.0577,-0.0532,-0.0503,-0.044,-0.0404,-0.0351,-0.0293,-0.0241,-0.0171,-0.0111,-0.0045,0.0019,0.0045,0.0063,0.006,0.0059,0.0068,0.0074,0.0062,0.0044,0.0044,0.0044,0.0044,0.0044,0.0044,-0.0747,-0.0693,-0.0657,-0.0578,-0.0532,-0.0472,-0.0439,-0.0393,-0.0346,-0.0271,-0.0221,-0.0178,-0.0117,-0.0049,0.0007,0.0025,0.0046,0.0038,0.006,0.0065,0.0068,0.0071,0.006,0.0042,0.0042,0.0051,0.0051,0.0051]},{"header":{"parameterUnit":"m.s-1","parameterCategory":1,"la1":30.2991,"la2":30.254,"lo1":-89.0895,"lo2":-89.0444,"dy":0.0017,"dx":0.0017,"nx":28,"ny":28,"refTime":"2025-06-05T09:00:00:Z","depth":0,"parameterNumber":3,"parameterNumberName":"V-component_of_WINDS"},"data":[0,0,0,0,0,0,0,0,0,0,0,0,0,0,0,0,0,0,0,0,0,0,0,0,0,0,0,0,0,0,0,0,0,0,0,0,0,0,0,0,0,0,0,0,0,0,0,0,0,0,0,0,0,0,0,0,0,0,4.0235,4.0235,0,4.0205,4.0205,4.0204,4.0133,4.0132,4.013,4.0129,4.01,4.01,4.0101,0,0,0,0,0,0,0,0,0,0,0,0,0,4.0232,4.0233,4.0235,4.0235,4.0235,4.0205,4.0205,4.0204,4.0134,4.0132,4.013,4.0128,4.01,4.01,4.0101,0,0,0,0,0,0,0,0,0,0,0,0,0,4.0221,4.0233,4.0235,4.0196,4.0192,4.0205,4.0205,4.0204,4.0134,4.0132,4.013,4.0128,4.0099,4.01,4.0101,4.0151,0,0,4.0104,4.0104,0,0,0,0,0,0,0,0,4.0222,4.0221,4.0202,4.0198,4.0194,4.0171,4.0193,4.0186,4.0135,4.0156,4.0129,4.0126,4.0125,4.0124,4.0123,4.015,4.0148,4.0104,4.0104,4.0105,4.0105,0,0,0,0,0,0,0,4.0223,4.0222,4.0223,4.0202,4.0197,4.018,4.0176,4.0191,4.0154,4.0154,4.0149,4.0146,4.0123,4.0122,4.0122,4.0148,4.0104,4.0105,4.0105,4.0106,4.0213,4.0216,0,0,0,0,0,0,4.0229,4.0223,4.0224,4.0222,4.0203,4.0182,4.0177,4.0181,4.0153,4.0147,4.0148,4.0143,4.0122,4.0121,4.0121,4.0177,4.0105,4.0106,4.0106,4.0211,4.0214,4.0216,0,0,0,0,0,0,4.0229,4.023,4.0226,4.0221,4.022,4.0184,4.0188,4.0181,4.0181,4.0149,4.0142,4.0155,4.012,4.0119,4.0144,4.0175,4.0106,4.0107,4.0208,4.0212,4.0215,4.0291,0,0,0,0,0,0,4.023,4.023,4.0249,4.0222,4.022,4.0249,4.019,4.0182,4.0182,4.0175,4.0153,4.0147,4.0118,4.0143,4.0145,4.0175,4.0108,4.0205,4.021,4.0214,4.0285,4.0296,4.0306,0,0,0,0,0,4.023,4.0272,4.025,4.0251,4.0242,4.0251,4.025,4.0216,4.0185,4.0204,4.0183,4.0148,4.0171,4.0146,4.0147,4.0179,4.0203,4.0209,4.0214,4.0281,4.0294,4.0306,0,0,0,0,0,0,4.0304,4.0268,4.0243,4.0278,4.0268,4.0239,4.0261,4.0231,4.023,4.0224,4.0181,4.0177,4.0207,4.0195,4.0167,4.0225,4.0182,4.0187,4.0232,4.0245,4.0255,4.0257,4.0108,0,0,0,0,0,4.0324,4.0334,4.0302,4.0336,4.0332,4.0298,4.03,4.0274,4.0263,4.0258,4.0239,4.023,4.0234,4.0239,4.0242,4.0283,4.0277,4.0305,4.0315,4.0324,4.033,4.0351,4.0363,4.0234,4.0234,4.0233,0,0,4.0366,4.0348,4.0357,4.035,4.0339,4.0351,4.0295,4.0309,4.0317,4.026,4.0282,4.0268,4.0254,4.0287,4.0301,4.0278,4.0364,4.0331,4.0338,4.0339,4.0357,4.0369,4.038,4.0237,4.0236,4.0236,0,0,4.0449,4.0436,4.0462,4.0452,4.0437,4.0413,4.042,4.0395,4.0384,4.0404,4.0362,4.0371,4.0381,4.0373,4.037,4.0449,4.0417,4.0451,4.0505,4.0525,4.0536,4.0544,4.0573,4.0583,4.0456,4.0456,4.0457,0,4.0504,4.0518,4.048,4.0497,4.0495,4.0444,4.047,4.0463,4.0449,4.0449,4.0424,4.0434,4.0422,4.0452,4.0471,4.047,4.0477,4.0453,4.0537,4.0546,4.0553,4.058,4.0591,4.0461,4.046,4.046,4.0459,0,4.0586,4.0597,4.0621,4.0608,4.0609,4.0631,4.0596,4.0601,4.0575,4.0555,4.0577,4.0559,4.0558,4.0563,4.0538,4.059,4.0576,4.0545,4.05,4.0571,4.0595,4.0605,4.0467,4.0465,4.0464,4.0463,0,0,4.0716,4.0681,4.069,4.0683,4.0662,4.067,4.0689,4.0687,4.0692,4.0684,4.07,4.0709,4.0679,4.0676,4.0649,4.0668,4.0731,4.0634,4.0633,4.0653,4.0787,4.0812,4.0824,4.071,4.0711,4.0713,4.0789,0,4.0794,4.0824,4.079,4.0828,4.0838,4.0788,4.0805,4.0794,4.0775,4.0781,4.076,4.0767,4.0728,4.0725,4.0741,4.072,4.0758,4.0714,4.0724,4.0725,4.0729,4.0837,4.0862,4.0935,4.0798,4.0799,4.08,0,4.0889,4.0885,4.0924,4.0899,4.0902,4.0917,4.0912,4.0918,4.0904,4.0889,4.0885,4.0853,4.0871,4.0827,4.085,4.0821,4.0823,4.0813,4.0815,4.0815,4.0767,4.084,4.0957,4.0968,4.0815,4.0814,4.0813,0,4.098,4.0984,4.1007,4.1003,4.0975,4.0987,4.0976,4.096,4.096,4.0956,4.0956,4.0954,4.0953,4.0952,4.092,4.0891,4.0948,4.0901,4.0936,4.0937,4.0951,4.0951,4.1071,4.0952,4.0952,4.0951,4.0951,0,4.107,4.1096,4.1048,4.1062,4.109,4.105,4.1078,4.1062,4.1048,4.1059,4.1016,4.1027,4.0984,4.0991,4.0966,4.0989,4.0989,4.0978,4.0971,4.0982,4.0984,4.0983,4.0977,4.0954,4.0954,4.0953,4.0953,0,4.1177,4.1145,4.1168,4.1139,4.1132,4.1154,4.1129,4.1142,4.112,4.1134,4.1135,4.1101,4.1106,4.1074,4.1074,4.1057,4.1093,4.1077,4.1098,4.1093,4.113,4.1127,4.1255,4.1269,4.1141,4.1142,4.1143,0,4.1237,4.1256,4.1229,4.1232,4.1223,4.123,4.123,4.1192,4.1194,4.1179,4.1193,4.1195,4.1194,4.1206,4.1181,4.1181,4.1165,4.1209,4.1165,4.1175,4.1166,4.1166,4.1168,4.1219,4.1221,4.1222,4.1223,0,4.1348,4.1331,4.1333,4.1329,4.133,4.1326,4.1318,4.1324,4.1281,4.1286,4.1291,4.129,4.129,4.1292,4.1287,4.1275,4.1243,4.1237,4.1245,4.1257,4.1269,4.1263,4.1124,4.1235,4.1234,4.1233,4.1232,4.1232,4.1433,4.1447,4.143,4.1433,4.1423,4.1417,4.1427,4.1406,4.141,4.1406,4.1382,4.1392,4.1377,4.1366,4.1358,4.1364,4.1343,4.1355,4.1358,4.1362,4.1369,4.1267,4.1363,4.1363,4.1362,4.1362,4.1362,0,4.1542,4.1528,4.1531,4.1522,4.1525,4.1492,4.1482,4.1487,4.1495,4.1483,4.1484,4.1489,4.1491,4.1466,4.1465,4.1475,4.146,4.1476,4.1476,4.1474,4.1387,4.1381,4.1489,4.1489,4.1489,4.1489,4.1489,4.1488,4.1599,4.1621,4.1602,4.1619,4.1605,4.1613,4.161,4.1604,4.1595,4.1603,4.1604,4.1587,4.1571,4.1568,4.1568,4.1561,4.1563,4.1584,4.1572,4.1492,4.148,4.1468,4.1461,4.1585,4.1585,4.1658,4.1658,4.1659]}]]